Weather Service Report


479 
ASUS46 KPQR 191410
RWROR 

OREGON REGIONAL WEATHER ROUNDUP
NATIONAL WEATHER SERVICE PORTLAND OR
700 AM PDT FRI SEP 19 2014

NOTE: "FAIR" INDICATES FEW OR NO CLOUDS BELOW 12,000 FEET WITH
NO SIGNIFICANT WEATHER AND/OR OBSTRUCTIONS TO VISIBILITY.

ORZ001>013-191500-
NORTHWEST OREGON

  
CITY           SKY/WX    TMP DP  RH WIND       PRES   REMARKS
ASTORIA        CLOUDY    61  59  93 SW5       30.05R                  
NEWPORT        CLOUDY    55  55 100 CALM      30.10R                  
PORTLAND       MOCLDY    62  59  90 CALM      30.07R                  
VANCOUVER WA   MOCLDY    60  57  89 CALM      30.06R                  
SCAPPOOSE      CLOUDY    56  55  97 CALM      30.06R                  
HILLSBORO      MOCLDY    57  55  93 CALM      30.07R                  
AURORA         CLOUDY    57  55  93 CALM      30.08R                  
MCMINNVILLE    MOCLDY    56  54  93 W3        30.08R                  
SALEM          CLEAR     55  52  89 CALM      30.07R                  
CORVALLIS      CLEAR     54  50  87 CALM      30.08R                  
EUGENE         PTCLDY    51  48  89 CALM      30.08R                  
$$

ORZ021-028-191500-
SOUTHWEST OREGON

  
CITY           SKY/WX    TMP DP  RH WIND       PRES   REMARKS
NORTH BEND     CLOUDY    54  54 100 CALM      30.07R VSB 1/4          
BROOKINGS      SUNNY     59  58  96 CALM      29.97S                  
ROSEBURG       CLOUDY    58  55  90 CALM      30.05R                  
SEXTON SUMMIT  CLEAR     56  52  86 NE7       30.10R                  
MEDFORD        CLEAR     57  53  86 CALM      30.05R                  
$$

ORZ009-041-191500-
COLUMBIA GORGE

  
CITY           SKY/WX    TMP DP  RH WIND       PRES   REMARKS
TROUTDALE      MOCLDY    61  57  87 CALM      30.06R                  
THE DALLES     PTCLDY    63  54  72 W6        30.03R                  
$$

ORZ029>031-042>050-061>064-191500-
EASTERN OREGON

  
CITY           SKY/WX    TMP DP  RH WIND       PRES   REMARKS
REDMOND        CLEAR     46  44  93 S3        30.11R                  
BEND           SUNNY     46  45  93 SW5       30.12R                  
KLAMATH FALLS  CLEAR     41  39  93 CALM      30.12R                  
LAKEVIEW       CLEAR     45  41  87 N7        30.16R                  
HERMISTON      CLEAR     62  52  69 SW9       30.00R                  
PENDLETON      CLEAR     58  49  72 S7        30.03R                  
JOHN DAY       CLOUDY    56  49  75 CALM      30.12R                  
MEACHAM        CLOUDY    54  47  77 CALM      30.10R                  
LA GRANDE      CLOUDY    57  39  51 SW3       30.07R                  
BAKER CITY     MOCLDY    52  47  83 S8        30.09R                  
BURNS          CLEAR     41  40  96 CALM      30.14R                  
ROME             N/A     48  37  65 CALM      30.10R                  
ONTARIO        CLEAR     62  48  60 W9        30.04R                  
$$

Return to Home page


Western Regional Climate Center, wrcc@dri.edu